This demonstration page uses our WeatherBlox Daily Observations layout. Learn more.

Left ArrowRight Arrow

39.51506, -84.39828

Hourly Observations for April 12, 2015

Temp ( °F °C ) Dew Point ( °F °C ) Humidity (%) Winds ( mph kmh ) Pressure ( in mb ) Visibility ( mi km ) Precip ( " mm )
12:15 am 00:15 Clear 42 5.8 37 2.6 80 80 N N/A 30.3 1026 7 11.26538 N/A
12:35 am 00:35 Clear 42 5.6 37 2.5 81 81 N N/A 30.3 1026 10 16.0934 N/A
12:55 am 00:55 Clear 42 5.5 36 2.4 81 81 N N/A 30.3 1026 7 11.26538 N/A
1:15 am 01:15 Clear 42 5.5 37 2.5 81 81 NNE 3 6 30.3 1026 10 16.0934 N/A
1:35 am 01:35 Clear 41 5.1 36 2.4 83 83 N N/A 30.3 1026 10 16.0934 N/A
1:55 am 01:55 Clear 40 4.7 36 2.2 84 84 N N/A 30.3 1026 10 16.0934 N/A
2:15 am 02:15 Clear 40 4.7 36 2.2 84 84 N N/A 30.3 1026 7 11.26538 N/A
2:35 am 02:35 Clear 39 4 35 1.5 84 84 N N/A 30.27 1025 10 16.0934 N/A
2:55 am 02:55 Clear 40 4.3 35 1.8 84 84 N N/A 30.27 1025 10 16.0934 N/A
3:15 am 03:15 Clear 39 4 35 1.5 84 84 N N/A 30.27 1025 10 16.0934 N/A
3:35 am 03:35 Clear 39 4 35 1.7 85 85 NNE 3 6 30.27 1025 10 16.0934 N/A
3:55 am 03:55 Clear 39 4 35 1.7 85 85 N 3 6 30.27 1025 10 16.0934 N/A
4:15 am 04:15 Clear 39 4 35 1.7 85 85 N N/A 30.27 1025 10 16.0934 N/A
4:35 am 04:35 Clear 39 4 35 1.7 85 85 N N/A 30.27 1025 10 16.0934 N/A
4:55 am 04:55 Clear 39 4 35 1.9 86 86 N N/A 30.27 1025 10 16.0934 N/A
5:15 am 05:15 Clear 37 3 33 0.8 86 86 N N/A 30.27 1025 10 16.0934 N/A
5:35 am 05:35 Clear 38 3.2 34 1.1 86 86 N N/A 30.27 1025 10 16.0934 N/A
5:55 am 05:55 Clear 37 2.7 33 0.5 86 86 N N/A 30.27 1025 10 16.0934 N/A
6:15 am 06:15 Clear 39 4 36 2 87 87 N N/A 30.27 1025 10 16.0934 N/A
6:35 am 06:35 Clear 38 3.3 34 1.3 87 87 N N/A 30.27 1025 10 16.0934 N/A
6:55 am 06:55 Clear 37 2.9 33 0.7 86 86 N N/A 30.27 1025 10 16.0934 N/A
7:15 am 07:15 Sunny 38 3.1 33 0.8 85 85 N N/A 30.3 1026 10 16.0934 N/A
7:35 am 07:35 Sunny 39 4 35 1.8 86 86 N N/A 30.3 1026 10 16.0934 N/A
7:55 am 07:55 Sunny 39 4 35 1.8 86 86 N N/A 30.3 1026 10 16.0934 N/A
8:15 am 08:15 Sunny 41 4.8 37 2.6 86 86 N N/A 30.3 1026 10 16.0934 N/A
8:35 am 08:35 Sunny 44 6.8 39 3.9 82 82 N N/A 30.27 1025 10 16.0934 N/A
8:55 am 08:55 Sunny 48 9.1 41 4.8 75 75 N N/A 30.27 1025 10 16.0934 N/A
9:15 am 09:15 Sunny 50 10.1 38 3.5 64 64 N N/A 30.27 1025 10 16.0934 N/A
9:35 am 09:35 Sunny 55 12.5 40 4.4 58 58 N N/A 30.27 1025 10 16.0934 N/A
9:55 am 09:55 Sunny 56 13.5 38 3.5 51 51 N N/A 30.27 1025 10 16.0934 N/A
10:15 am 10:15 Sunny 57 13.8 36 2 45 45 N N/A 30.27 1025 10 16.0934 N/A
10:35 am 10:35 Sunny 60 15.3 35 1.9 41 41 S 7 11 30.27 1025 10 16.0934 N/A
10:55 am 10:55 Sunny 60 15.7 32 -0.1 34 34 S 8 13 30.27 1025 10 16.0934 N/A
11:15 am 11:15 Sunny 62 16.6 32 -0.2 32 32 SSE 8 13 30.24 1024 10 16.0934 N/A
11:35 am 11:35 Sunny 63 17.2 30 -1.1 29 29 SSE 9 15 30.24 1024 10 16.0934 N/A
11:55 am 11:55 Sunny 64 18 30 -1.3 27 27 S 5 7 30.21 1023 10 16.0934 N/A
12:15 pm 12:15 Sunny 67 19.2 28 -2.3 23 23 S 7 11 30.21 1023 10 16.0934 N/A
12:35 pm 12:35 Sunny 68 20.1 28 -2 23 23 S 7 11 30.21 1023 10 16.0934 N/A
12:55 pm 12:55 Sunny 69 20.8 28 -2.1 21 21 SSE 3 6 30.18 1022 10 16.0934 N/A
1:15 pm 13:15 Sunny 69 20.8 29 -1.7 22 22 S 5 7 30.18 1022 10 16.0934 N/A
1:35 pm 13:35 Sunny 69 20.8 27 -2.6 21 21 S 3 6 30.18 1022 10 16.0934 N/A
1:55 pm 13:55 Sunny 69 20.8 26 -3.4 19 19 N N/A 30.18 1022 10 16.0934 N/A
2:15 pm 14:15 Sunny 69 20.8 25 -4 19 19 SSE 8 13 30.15 1021 10 16.0934 N/A
2:35 pm 14:35 Sunny 69 20.8 26 -3.6 19 19 SE 7 11 30.15 1021 10 16.0934 N/A
2:55 pm 14:55 Sunny 70 21.3 25 -4.1 18 18 SSE 6 9 30.15 1021 10 16.0934 N/A
3:15 pm 15:15 Sunny 71 21.7 24 -4.5 17 17 E 7 11 30.12 1020 10 16.0934 N/A
3:35 pm 15:35 Sunny 74 23.6 29 -1.7 19 19 SSE 7 11 30.12 1020 10 16.0934 N/A
3:55 pm 15:55 Sunny 74 23.6 29 -1.8 18 18 S 6 9 30.12 1020 10 16.0934 N/A
4:15 pm 16:15 Sunny 74 23.6 28 -2.4 18 18 SSE 3 6 30.12 1020 10 16.0934 N/A
4:35 pm 16:35 Sunny 74 23.6 26 -3.3 16 16 SSE 8 13 30.09 1019 10 16.0934 N/A
4:55 pm 16:55 Sunny 74 23.6 22 -5.6 14 14 W 3 6 30.12 1020 10 16.0934 N/A
5:15 pm 17:15 Sunny 74 23.6 22 -5.3 14 14 W 5 7 30.12 1020 10 16.0934 N/A
5:35 pm 17:35 Sunny 74 23.6 23 -4.9 15 15 N N/A 30.09 1019 10 16.0934 N/A
5:55 pm 17:55 Sunny 74 23.6 30 -0.9 20 20 E 9 15 30.09 1019 10 16.0934 N/A
6:15 pm 18:15 Sunny 74 23.6 28 -2.4 18 18 E 5 7 30.09 1019 10 16.0934 N/A
6:35 pm 18:35 Sunny 74 23.6 28 -2.1 18 18 SE 5 7 30.09 1019 10 16.0934 N/A
6:55 pm 18:55 Sunny 74 23.6 23 -4.8 15 15 SE 5 7 30.09 1019 10 16.0934 N/A
7:15 pm 19:15 Sunny 74 23.6 26 -3.2 17 17 S 5 7 30.09 1019 10 16.0934 N/A
7:35 pm 19:35 Sunny 72 22.4 24 -4.5 16 16 ESE 5 7 30.06 1018 10 16.0934 N/A
7:55 pm 19:55 Sunny 70 20.9 24 -4.7 18 18 ESE 5 7 30.06 1018 10 16.0934 N/A
8:15 pm 20:15 Clear 69 20.8 29 -1.8 22 22 ESE 6 9 30.06 1018 10 16.0934 N/A
8:35 pm 20:35 Clear 68 20.2 35 1.8 30 30 E 6 9 30.06 1018 10 16.0934 N/A
8:55 pm 20:55 Clear 69 20.8 32 0.1 25 25 E 3 6 30.06 1018 10 16.0934 N/A
9:15 pm 21:15 Clear 67 19.3 37 3 34 34 N N/A 30.06 1018 10 16.0934 N/A
9:35 pm 21:35 Clear 60 15.4 45 7.2 58 58 N N/A 30.09 1019 10 16.0934 N/A
9:55 pm 21:55 Clear 60 15.3 47 8.5 64 64 NNE 3 6 30.09 1019 10 16.0934 N/A
10:15 pm 22:15 Clear 60 15.3 47 8.1 62 62 N N/A 30.09 1019 10 16.0934 N/A
10:35 pm 22:35 Clear 58 14.4 47 8.4 67 67 N N/A 30.09 1019 10 16.0934 N/A
10:55 pm 22:55 Clear 59 15 44 6.6 57 57 N N/A 30.12 1020 10 16.0934 N/A
11:15 pm 23:15 Clear 57 14 44 6.7 62 62 NNW 3 6 30.09 1019 10 16.0934 N/A
11:35 pm 23:35 Clear 57 13.7 45 7.1 65 65 N N/A 30.09 1019 10 16.0934 N/A
11:55 pm 23:55 Clear 56 13.1 43 6.1 63 63 N N/A 30.09 1019 10 16.0934 N/A

Powered by AerisWeather